Home   Weather   Neubrandenburg   Past weeks

Flag for Germany Past Weather in Neubrandenburg, Mecklenburg-Western Pomerania, Germany — Yesterday and Last 2 Weeks

Now
34 °F

Light rain. Partly sunny.


Feels Like: 34 °F
Forecast: 33 / 50 °F
Wind: 1 mph from North

Location: Laage

Current Time: Apr 25, 2017 at 6:40:25 am

Latest Report: Apr 25, 2017 at 6:05 am


Visibility: 4 mi

Pressure: 29.56 "Hg

Humidity: 100%

Dew Point: 34 °F

Location of NeubrandenburgLocation

Past Weather in Neubrandenburg — Graph

°F

Neubrandenburg Temperature Yesterday

Maximum temperature yesterday: 52 °F (at 2:20 pm)
Minimum temperature yesterday: 36 °F (at 2:20 am)
Average temperature yesterday: 43 °F

High & Low Weather Summary for the Past Weeks

 TemperatureHumidityPressure
High57 °F (Apr 10, 10:20 am)100% (Apr 12, 4:20 am)30.60 "Hg (Apr 12, 4:20 am)
Low27 °F (Apr 20, 3:20 am)42% (Apr 19, 2:20 pm)29.59 "Hg (Apr 25, 5:20 am)
Average43 °F76%30.00 "Hg
* Reported Apr 10 5:20 am — Apr 25 5:20 am, Neubrandenburg, Weather by CustomWeather, © 2017

Note: Actual official high and low records may vary slightly from our data, if they occured in-between our weather recording intervals... More about our weather records

Advertising

Neubrandenburg Weather History for the Previous 24 Hours

Scroll right to see more
 ConditionsComfort  
Time TempWeatherWind HumidityBarometerVisibility
5:20 am
Tue, Apr 25
34 °FLight rain. Partly cloudy.2 mph100%29.59 "Hg4 mi
4:20 am34 °FLight rain. Partly cloudy.3 mph93%29.62 "Hg5 mi
3:20 am36 °FRain. Mostly cloudy.5 mph93%29.62 "Hg4 mi
2:20 am39 °FRain. Passing clouds.9 mph81%29.65 "Hg5 mi
1:20 am41 °FLight rain. Partly cloudy.3 mph87%29.65 "HgN/A
12:20 am41 °FLight rain. Passing clouds.6 mph87%29.68 "HgN/A
11:43 pm
Mon, Apr 24
41 °FLight rain. Partly cloudy.6 mph87%29.68 "HgN/A
11:20 pm41 °FLight rain. Passing clouds.6 mph87%29.71 "HgN/A
10:20 pm43 °FLight rain. Partly cloudy.7 mph87%29.71 "Hg6 mi
9:20 pm43 °FLight rain. Partly cloudy.5 mph93%29.71 "Hg6 mi
8:20 pm45 °FLight rain. Broken clouds.7 mph87%29.71 "Hg6 mi
7:20 pm45 °FLight rain. Partly sunny.13 mph87%29.71 "Hg6 mi
6:42 pm50 °FLight rain. Partly sunny.18 mph71%29.71 "Hg4 mi
6:20 pm50 °FPartly sunny.18 mph71%29.71 "Hg6 mi
5:20 pm50 °FPartly sunny.15 mph67%29.71 "Hg5 mi
4:20 pm52 °FPartly sunny.15 mph58%29.71 "HgN/A
3:20 pm52 °FBroken clouds.20 mph58%29.74 "HgN/A
2:20 pm52 °FPartly sunny.17 mph58%29.77 "HgN/A
1:20 pm48 °FPartly sunny.15 mph62%29.80 "HgN/A
12:20 pm46 °FPartly sunny.16 mph62%29.83 "HgN/A
11:20 am45 °FPartly sunny.12 mph66%29.86 "HgN/A
10:20 am43 °FPartly sunny.14 mph71%29.86 "HgN/A
9:20 am43 °FPartly sunny.13 mph71%29.92 "HgN/A
8:20 am39 °FPartly sunny.9 mph81%29.95 "HgN/A
7:20 am37 °FPartly sunny.8 mph87%29.95 "HgN/A
6:20 am37 °FPartly sunny.8 mph87%29.98 "HgN/A
Weather by CustomWeather, © 2017

See weather overviewHow to use our weather pages